Time,TemperatureF,DewpointF,PressureIn,WindDirection,WindDirectionDegrees,WindSpeedMPH,WindSpeedGustMPH,Humidity,HourlyPrecipIn,Conditions,Clouds,dailyrainin,SoftwareType,DateUTC
2013-01-20 00:03:00,41.1,39.5,30.25,South,171,0.0,0.0,94,0.00,,SKC,0.00,VWS V14.00,2013-01-20 06:03:00,
2013-01-20 00:08:00,41.0,39.4,30.25,South,171,0.0,0.0,94,0.00,,SKC,0.00,VWS V14.00,2013-01-20 06:08:00,
2013-01-20 00:13:00,40.9,39.3,30.25,South,171,0.0,0.0,94,0.00,,SKC,0.00,VWS V14.00,2013-01-20 06:13:00,
2013-01-20 00:18:00,40.7,38.8,30.25,South,171,0.0,0.0,93,0.00,,SKC,0.00,VWS V14.00,2013-01-20 06:18:00,
2013-01-20 00:23:00,40.5,38.9,30.25,South,171,2.0,2.0,94,0.00,,SKC,0.00,VWS V14.00,2013-01-20 06:23:00,
2013-01-20 00:28:00,40.4,38.8,30.25,South,171,0.0,2.0,94,0.00,,SKC,0.00,VWS V14.00,2013-01-20 06:28:00,
2013-01-20 00:33:00,40.3,38.7,30.25,South,171,0.0,2.0,94,0.00,,SKC,0.00,VWS V14.00,2013-01-20 06:33:00,
2013-01-20 00:38:00,40.2,38.6,30.25,South,171,0.0,2.0,94,0.00,,SKC,0.00,VWS V14.00,2013-01-20 06:38:00,
2013-01-20 00:43:00,40.2,38.6,30.25,South,171,0.0,2.0,94,0.00,,SKC,0.00,VWS V14.00,2013-01-20 06:43:00,
2013-01-20 00:48:00,40.1,38.5,30.24,South,171,0.0,2.0,94,0.00,,SKC,0.00,VWS V14.00,2013-01-20 06:48:00,
2013-01-20 00:53:00,40.0,38.4,30.25,South,171,0.0,2.0,94,0.00,,SKC,0.00,VWS V14.00,2013-01-20 06:53:00,
2013-01-20 00:58:00,40.0,38.4,30.25,South,171,0.0,2.0,94,0.00,,SKC,0.00,VWS V14.00,2013-01-20 06:58:00,
2013-01-20 01:03:00,39.8,38.2,30.25,South,171,0.0,0.0,94,0.00,,SKC,0.00,VWS V14.00,2013-01-20 07:03:00,
2013-01-20 01:08:00,39.7,38.1,30.25,South,171,0.0,0.0,94,0.00,,SKC,0.00,VWS V14.00,2013-01-20 07:08:00,
2013-01-20 01:13:00,39.7,38.4,30.25,South,171,0.0,0.0,95,0.00,,SKC,0.00,VWS V14.00,2013-01-20 07:13:00,
2013-01-20 01:18:00,39.6,38.3,30.25,South,171,0.0,0.0,95,0.00,,SKC,0.00,VWS V14.00,2013-01-20 07:18:00,
2013-01-20 01:23:00,39.5,38.2,30.25,South,171,1.0,2.0,95,0.00,,SKC,0.00,VWS V14.00,2013-01-20 07:23:00,
2013-01-20 01:28:00,39.4,38.1,30.25,South,171,2.0,4.0,95,0.00,,SKC,0.00,VWS V14.00,2013-01-20 07:28:00,
2013-01-20 01:33:00,39.3,38.0,30.25,South,171,1.0,4.0,95,0.00,,SKC,0.00,VWS V14.00,2013-01-20 07:33:00,
2013-01-20 01:38:00,39.2,37.9,30.26,South,171,2.0,4.0,95,0.00,,SKC,0.00,VWS V14.00,2013-01-20 07:38:00,
2013-01-20 01:43:00,39.0,37.7,30.26,South,171,0.0,4.0,95,0.00,,SKC,0.00,VWS V14.00,2013-01-20 07:43:00,
2013-01-20 01:48:00,38.9,37.6,30.26,South,171,0.0,4.0,95,0.00,,SKC,0.00,VWS V14.00,2013-01-20 07:48:00,
2013-01-20 01:53:00,38.9,37.6,30.26,South,171,0.0,4.0,95,0.00,,SKC,0.00,VWS V14.00,2013-01-20 07:53:00,
2013-01-20 01:58:00,38.9,37.6,30.25,South,171,0.0,4.0,95,0.00,,SKC,0.00,VWS V14.00,2013-01-20 07:58:00,
2013-01-20 02:03:00,38.8,37.5,30.25,South,171,0.0,0.0,95,0.00,,SKC,0.00,VWS V14.00,2013-01-20 08:03:00,
2013-01-20 02:08:00,38.8,37.5,30.25,South,171,0.0,0.0,95,0.00,,SKC,0.00,VWS V14.00,2013-01-20 08:08:00,
2013-01-20 02:13:00,38.7,37.4,30.25,South,171,0.0,0.0,95,0.00,,SKC,0.00,VWS V14.00,2013-01-20 08:13:00,
2013-01-20 02:18:00,38.6,37.3,30.25,South,171,0.0,0.0,95,0.00,,SKC,0.00,VWS V14.00,2013-01-20 08:18:00,
2013-01-20 02:23:00,38.5,37.2,30.25,South,171,0.0,0.0,95,0.00,,SKC,0.00,VWS V14.00,2013-01-20 08:23:00,
2013-01-20 02:28:00,38.4,37.1,30.25,South,171,2.0,2.0,95,0.00,,SKC,0.00,VWS V14.00,2013-01-20 08:28:00,
2013-01-20 02:33:00,38.3,37.0,30.25,South,171,2.0,2.0,95,0.00,,SKC,0.00,VWS V14.00,2013-01-20 08:33:00,
2013-01-20 02:38:00,38.3,37.0,30.25,South,171,0.0,2.0,95,0.00,,SKC,0.00,VWS V14.00,2013-01-20 08:38:00,
2013-01-20 02:43:00,38.2,36.9,30.25,South,171,0.0,2.0,95,0.00,,SKC,0.00,VWS V14.00,2013-01-20 08:43:00,
2013-01-20 02:48:00,38.1,36.8,30.25,South,171,0.0,2.0,95,0.00,,SKC,0.00,VWS V14.00,2013-01-20 08:48:00,
2013-01-20 02:53:00,38.0,36.7,30.24,South,171,0.0,2.0,95,0.00,,SKC,0.00,VWS V14.00,2013-01-20 08:53:00,
2013-01-20 02:58:00,38.0,36.7,30.24,South,171,0.0,2.0,95,0.00,,SKC,0.00,VWS V14.00,2013-01-20 08:58:00,
2013-01-20 03:03:00,37.9,36.6,30.24,South,171,0.0,0.0,95,0.00,,SKC,0.00,VWS V14.00,2013-01-20 09:03:00,
2013-01-20 03:08:00,37.9,36.6,30.24,South,171,0.0,0.0,95,0.00,,SKC,0.00,VWS V14.00,2013-01-20 09:08:00,
2013-01-20 03:13:00,37.8,36.8,30.24,South,171,0.0,0.0,96,0.00,,SKC,0.00,VWS V14.00,2013-01-20 09:13:00,
2013-01-20 03:18:00,37.8,36.8,30.24,South,171,0.0,0.0,96,0.00,,SKC,0.00,VWS V14.00,2013-01-20 09:18:00,
2013-01-20 03:23:00,37.7,36.7,30.24,South,171,0.0,0.0,96,0.00,,SKC,0.00,VWS V14.00,2013-01-20 09:23:00,
2013-01-20 03:28:00,37.7,36.7,30.24,South,171,0.0,0.0,96,0.00,,SKC,0.00,VWS V14.00,2013-01-20 09:28:00,
2013-01-20 03:33:00,37.7,36.7,30.24,South,171,0.0,0.0,96,0.00,,SKC,0.00,VWS V14.00,2013-01-20 09:33:00,
2013-01-20 03:38:00,37.6,36.6,30.24,South,171,0.0,0.0,96,0.00,,SKC,0.00,VWS V14.00,2013-01-20 09:38:00,
2013-01-20 03:43:00,37.5,36.5,30.24,South,171,0.0,0.0,96,0.00,,SKC,0.00,VWS V14.00,2013-01-20 09:43:00,
2013-01-20 03:48:00,37.5,36.5,30.24,South,171,0.0,0.0,96,0.00,,SKC,0.00,VWS V14.00,2013-01-20 09:48:00,
2013-01-20 03:53:00,37.4,36.4,30.24,South,171,0.0,0.0,96,0.00,,SKC,0.00,VWS V14.00,2013-01-20 09:53:00,
2013-01-20 03:58:00,37.2,36.2,30.24,South,171,4.0,4.0,96,0.00,,SKC,0.00,VWS V14.00,2013-01-20 09:58:00,
2013-01-20 04:03:00,37.1,36.1,30.24,South,171,0.0,1.0,96,0.00,,SKC,0.00,VWS V14.00,2013-01-20 10:03:00,
2013-01-20 04:08:00,37.1,36.1,30.24,South,171,0.0,1.0,96,0.00,,SKC,0.00,VWS V14.00,2013-01-20 10:08:00,
2013-01-20 04:13:00,37.0,36.0,30.23,South,171,0.0,1.0,96,0.00,,SKC,0.00,VWS V14.00,2013-01-20 10:13:00,
2013-01-20 04:18:00,36.9,35.9,30.23,South,171,0.0,1.0,96,0.00,,SKC,0.00,VWS V14.00,2013-01-20 10:18:00,
2013-01-20 04:23:00,36.8,35.8,30.23,South,171,0.0,1.0,96,0.00,,SKC,0.00,VWS V14.00,2013-01-20 10:23:00,
2013-01-20 04:28:00,36.8,35.8,30.23,South,171,0.0,1.0,96,0.00,,SKC,0.00,VWS V14.00,2013-01-20 10:28:00,
2013-01-20 04:33:00,36.7,35.7,30.23,South,171,0.0,1.0,96,0.00,,SKC,0.00,VWS V14.00,2013-01-20 10:33:00,
2013-01-20 04:38:00,36.7,35.7,30.23,South,171,0.0,1.0,96,0.00,,SKC,0.00,VWS V14.00,2013-01-20 10:38:00,
2013-01-20 04:43:00,36.7,35.7,30.24,South,171,0.0,1.0,96,0.00,,SKC,0.00,VWS V14.00,2013-01-20 10:43:00,
2013-01-20 04:48:00,36.6,35.6,30.24,South,171,0.0,1.0,96,0.00,,SKC,0.00,VWS V14.00,2013-01-20 10:48:00,
2013-01-20 04:53:00,36.5,35.5,30.24,South,171,0.0,1.0,96,0.00,,SKC,0.00,VWS V14.00,2013-01-20 10:53:00,
2013-01-20 04:58:00,36.4,35.4,30.24,South,171,0.0,1.0,96,0.00,,SKC,0.00,VWS V14.00,2013-01-20 10:58:00,
2013-01-20 05:03:00,36.4,35.4,30.24,South,171,0.0,0.0,96,0.00,,SKC,0.00,VWS V14.00,2013-01-20 11:03:00,
2013-01-20 05:08:00,36.3,35.3,30.24,South,171,0.0,0.0,96,0.00,,SKC,0.00,VWS V14.00,2013-01-20 11:08:00,
2013-01-20 05:13:00,36.2,35.2,30.24,South,171,0.0,0.0,96,0.00,,SKC,0.00,VWS V14.00,2013-01-20 11:13:00,
2013-01-20 05:18:00,36.2,35.2,30.24,South,171,0.0,0.0,96,0.00,,SKC,0.00,VWS V14.00,2013-01-20 11:18:00,
2013-01-20 05:23:00,36.2,35.2,30.23,South,171,0.0,0.0,96,0.00,,SKC,0.00,VWS V14.00,2013-01-20 11:23:00,
2013-01-20 05:28:00,36.3,35.3,30.23,South,171,0.0,0.0,96,0.00,,SKC,0.00,VWS V14.00,2013-01-20 11:28:00,
2013-01-20 05:33:00,36.2,35.2,30.23,South,171,2.0,2.0,96,0.00,,SKC,0.00,VWS V14.00,2013-01-20 11:33:00,
2013-01-20 05:38:00,36.2,35.2,30.23,South,171,0.0,2.0,96,0.00,,SKC,0.00,VWS V14.00,2013-01-20 11:38:00,
2013-01-20 05:43:00,36.1,35.1,30.23,South,171,0.0,2.0,96,0.00,,SKC,0.00,VWS V14.00,2013-01-20 11:43:00,
2013-01-20 05:48:00,36.0,35.0,30.23,South,171,0.0,2.0,96,0.00,,SKC,0.00,VWS V14.00,2013-01-20 11:48:00,
2013-01-20 05:53:00,35.9,34.9,30.23,South,171,0.0,2.0,96,0.00,,SKC,0.00,VWS V14.00,2013-01-20 11:53:00,
2013-01-20 05:58:00,35.9,34.9,30.23,South,171,0.0,2.0,96,0.00,,SKC,0.00,VWS V14.00,2013-01-20 11:58:00,
2013-01-20 06:03:00,35.7,34.7,30.23,South,171,0.0,0.0,96,0.00,,SKC,0.00,VWS V14.00,2013-01-20 12:03:00,
2013-01-20 06:08:00,35.8,34.8,30.23,South,171,0.0,0.0,96,0.00,,SKC,0.00,VWS V14.00,2013-01-20 12:08:00,
2013-01-20 06:13:00,35.9,34.9,30.23,South,171,2.0,2.0,96,0.00,,SKC,0.00,VWS V14.00,2013-01-20 12:13:00,
2013-01-20 06:18:00,36.0,35.2,30.23,South,171,1.0,2.0,97,0.00,,SKC,0.00,VWS V14.00,2013-01-20 12:18:00,
2013-01-20 06:23:00,36.1,35.1,30.23,South,171,1.0,2.0,96,0.00,,SKC,0.00,VWS V14.00,2013-01-20 12:23:00,
2013-01-20 06:28:00,36.0,35.0,30.23,South,171,0.0,2.0,96,0.00,,SKC,0.00,VWS V14.00,2013-01-20 12:28:00,
2013-01-20 06:33:00,35.8,34.8,30.23,South,171,0.0,2.0,96,0.00,,SKC,0.00,VWS V14.00,2013-01-20 12:33:00,
2013-01-20 06:38:00,35.7,34.7,30.23,South,171,0.0,2.0,96,0.00,,SKC,0.00,VWS V14.00,2013-01-20 12:38:00,
2013-01-20 06:43:00,35.6,34.6,30.24,South,171,1.0,2.0,96,0.00,,SKC,0.00,VWS V14.00,2013-01-20 12:43:00,
2013-01-20 06:48:00,35.5,34.5,30.24,South,171,0.0,2.0,96,0.00,,SKC,0.00,VWS V14.00,2013-01-20 12:48:00,
2013-01-20 06:53:00,35.4,34.4,30.24,South,171,0.0,2.0,96,0.00,,SKC,0.00,VWS V14.00,2013-01-20 12:53:00,
2013-01-20 06:58:00,35.3,34.3,30.24,South,171,0.0,2.0,96,0.00,,SKC,0.00,VWS V14.00,2013-01-20 12:58:00,
2013-01-20 07:03:00,35.3,34.3,30.24,South,171,1.0,1.0,96,0.00,,SKC,0.00,VWS V14.00,2013-01-20 13:03:00,
2013-01-20 07:08:00,35.3,34.3,30.24,South,171,1.0,1.0,96,0.00,,SKC,0.00,VWS V14.00,2013-01-20 13:08:00,
2013-01-20 07:13:00,35.2,34.2,30.24,South,171,0.0,1.0,96,0.00,,SKC,0.00,VWS V14.00,2013-01-20 13:13:00,
2013-01-20 07:18:00,35.0,34.0,30.24,South,171,0.0,1.0,96,0.00,,SKC,0.00,VWS V14.00,2013-01-20 13:18:00,
2013-01-20 07:23:00,35.0,34.0,30.24,South,171,0.0,1.0,96,0.00,,SKC,0.00,VWS V14.00,2013-01-20 13:23:00,
2013-01-20 07:28:00,35.1,34.1,30.24,South,171,1.0,2.0,96,0.00,,SKC,0.00,VWS V14.00,2013-01-20 13:28:00,
2013-01-20 07:33:00,35.2,34.4,30.24,South,171,0.0,2.0,97,0.00,,SKC,0.00,VWS V14.00,2013-01-20 13:33:00,
2013-01-20 07:38:00,35.5,34.7,30.24,South,171,0.0,2.0,97,0.00,,SKC,0.00,VWS V14.00,2013-01-20 13:38:00,
2013-01-20 07:43:00,35.6,34.8,30.25,South,171,0.0,2.0,97,0.00,,SKC,0.00,VWS V14.00,2013-01-20 13:43:00,
2013-01-20 07:48:00,35.9,35.1,30.25,South,171,0.0,2.0,97,0.00,,SKC,0.00,VWS V14.00,2013-01-20 13:48:00,
2013-01-20 07:53:00,36.3,35.5,30.25,South,171,0.0,2.0,97,0.00,,SKC,0.00,VWS V14.00,2013-01-20 13:53:00,
2013-01-20 07:58:00,36.7,35.9,30.25,South,171,0.0,2.0,97,0.00,,SKC,0.00,VWS V14.00,2013-01-20 13:58:00,
2013-01-20 08:03:00,37.1,36.3,30.25,South,171,0.0,0.0,97,0.00,,SKC,0.00,VWS V14.00,2013-01-20 14:03:00,
2013-01-20 08:08:00,37.7,36.9,30.25,South,171,0.0,0.0,97,0.00,,SKC,0.00,VWS V14.00,2013-01-20 14:08:00,
2013-01-20 08:13:00,38.3,37.8,30.25,South,171,0.0,0.0,98,0.00,,SKC,0.00,VWS V14.00,2013-01-20 14:13:00,
2013-01-20 08:18:00,39.1,38.6,30.25,South,171,0.0,0.0,98,0.00,,SKC,0.00,VWS V14.00,2013-01-20 14:18:00,
2013-01-20 08:23:00,40.0,39.5,30.25,South,171,0.0,0.0,98,0.00,,SKC,0.00,VWS V14.00,2013-01-20 14:23:00,
2013-01-20 08:28:00,40.8,40.3,30.25,South,171,0.0,0.0,98,0.00,,SKC,0.00,VWS V14.00,2013-01-20 14:28:00,
2013-01-20 08:33:00,41.8,41.3,30.25,South,171,0.0,0.0,98,0.00,,SKC,0.00,VWS V14.00,2013-01-20 14:33:00,
2013-01-20 08:38:00,42.7,42.2,30.25,South,171,0.0,0.0,98,0.00,,SKC,0.00,VWS V14.00,2013-01-20 14:38:00,
2013-01-20 08:43:00,43.8,43.3,30.26,South,171,4.0,5.0,98,0.00,,SKC,0.00,VWS V14.00,2013-01-20 14:43:00,
2013-01-20 08:48:00,44.8,44.3,30.26,South,171,1.0,5.0,98,0.00,,SKC,0.00,VWS V14.00,2013-01-20 14:48:00,
2013-01-20 08:53:00,45.8,45.3,30.26,South,170,2.0,5.0,98,0.00,,SKC,0.00,VWS V14.00,2013-01-20 14:53:00,
2013-01-20 08:58:00,46.8,46.3,30.26,ESE,111,2.0,6.0,98,0.00,,SKC,0.00,VWS V14.00,2013-01-20 14:58:00,
2013-01-20 09:03:00,47.6,47.1,30.26,ESE,106,1.0,4.0,98,0.00,,SKC,0.00,VWS V14.00,2013-01-20 15:03:00,
2013-01-20 09:08:00,48.3,47.8,30.26,East,89,1.0,6.0,98,0.00,,SKC,0.00,VWS V14.00,2013-01-20 15:08:00,
2013-01-20 09:13:00,48.9,48.4,30.26,ENE,71,4.0,6.0,98,0.00,,SKC,0.00,VWS V14.00,2013-01-20 15:13:00,
2013-01-20 09:18:00,49.5,49.0,30.26,ENE,65,2.0,6.0,98,0.00,,SKC,0.00,VWS V14.00,2013-01-20 15:18:00,
2013-01-20 09:23:00,50.1,49.3,30.26,NE,46,4.0,6.0,97,0.00,,SKC,0.00,VWS V14.00,2013-01-20 15:23:00,
2013-01-20 09:28:00,50.8,49.1,30.26,NE,47,2.0,6.0,94,0.00,,SKC,0.00,VWS V14.00,2013-01-20 15:28:00,
2013-01-20 09:33:00,51.3,49.1,30.26,NE,47,2.0,6.0,92,0.00,,SKC,0.00,VWS V14.00,2013-01-20 15:33:00,
2013-01-20 09:38:00,52.2,50.0,30.26,NE,47,4.0,6.0,92,0.00,,SKC,0.00,VWS V14.00,2013-01-20 15:38:00,
2013-01-20 09:43:00,52.8,49.7,30.26,NE,37,6.0,7.0,89,0.00,,SKC,0.00,VWS V14.00,2013-01-20 15:43:00,
2013-01-20 09:48:00,53.3,50.2,30.26,NE,38,2.0,7.0,89,0.00,,SKC,0.00,VWS V14.00,2013-01-20 15:48:00,
2013-01-20 09:53:00,53.9,50.4,30.26,NE,36,3.0,7.0,88,0.00,,SKC,0.00,VWS V14.00,2013-01-20 15:53:00,
2013-01-20 09:58:00,54.6,50.8,30.26,NNE,26,3.0,7.0,87,0.00,,SKC,0.00,VWS V14.00,2013-01-20 15:58:00,
2013-01-20 10:03:00,55.0,50.6,30.26,NE,34,4.0,4.0,85,0.00,,SKC,0.00,VWS V14.00,2013-01-20 16:03:00,
2013-01-20 10:08:00,55.5,51.1,30.26,NE,34,5.0,5.0,85,0.00,,SKC,0.00,VWS V14.00,2013-01-20 16:08:00,
2013-01-20 10:13:00,55.9,50.8,30.27,NNE,31,3.0,7.0,83,0.00,,SKC,0.00,VWS V14.00,2013-01-20 16:13:00,
2013-01-20 10:18:00,56.3,50.9,30.27,NE,36,3.0,7.0,82,0.00,,SKC,0.00,VWS V14.00,2013-01-20 16:18:00,
2013-01-20 10:23:00,56.7,50.9,30.27,NNE,33,1.0,7.0,81,0.00,,SKC,0.00,VWS V14.00,2013-01-20 16:23:00,
2013-01-20 10:28:00,57.1,51.7,30.27,North,10,3.0,7.0,82,0.00,,SKC,0.00,VWS V14.00,2013-01-20 16:28:00,
2013-01-20 10:33:00,57.5,51.0,30.27,North,5,2.0,7.0,79,0.00,,SKC,0.00,VWS V14.00,2013-01-20 16:33:00,
2013-01-20 10:38:00,57.6,51.1,30.27,North,355,2.0,7.0,79,0.00,,SKC,0.00,VWS V14.00,2013-01-20 16:38:00,
2013-01-20 10:43:00,57.9,50.7,30.27,NNE,20,4.0,7.0,77,0.00,,SKC,0.00,VWS V14.00,2013-01-20 16:43:00,
2013-01-20 10:48:00,58.0,50.1,30.27,North,360,4.0,7.0,75,0.00,,SKC,0.00,VWS V14.00,2013-01-20 16:48:00,
2013-01-20 10:53:00,58.2,50.3,30.26,North,10,5.0,7.0,75,0.00,,SKC,0.00,VWS V14.00,2013-01-20 16:53:00,
2013-01-20 10:58:00,58.6,50.3,30.26,NNE,22,5.0,8.0,74,0.00,,SKC,0.00,VWS V14.00,2013-01-20 16:58:00,
2013-01-20 11:03:00,58.8,50.2,30.26,NNE,21,3.0,6.0,73,0.00,,SKC,0.00,VWS V14.00,2013-01-20 17:03:00,
2013-01-20 11:08:00,59.0,50.0,30.26,NNE,23,3.0,7.0,72,0.00,,SKC,0.00,VWS V14.00,2013-01-20 17:08:00,
2013-01-20 11:13:00,59.3,50.3,30.26,NNE,24,5.0,7.0,72,0.00,,SKC,0.00,VWS V14.00,2013-01-20 17:13:00,
2013-01-20 11:18:00,59.7,51.0,30.25,NNE,15,3.0,7.0,73,0.00,,SKC,0.00,VWS V14.00,2013-01-20 17:18:00,
2013-01-20 11:23:00,60.2,51.2,30.25,NNE,19,4.0,7.0,72,0.00,,SKC,0.00,VWS V14.00,2013-01-20 17:23:00,
2013-01-20 11:28:00,60.3,50.5,30.25,NNE,19,2.0,7.0,70,0.00,,SKC,0.00,VWS V14.00,2013-01-20 17:28:00,
2013-01-20 11:33:00,60.7,50.5,30.24,NNE,20,3.0,7.0,69,0.00,,SKC,0.00,VWS V14.00,2013-01-20 17:33:00,
2013-01-20 11:38:00,61.0,49.6,30.24,NNE,21,6.0,7.0,66,0.00,,SKC,0.00,VWS V14.00,2013-01-20 17:38:00,
2013-01-20 11:43:00,61.3,49.5,30.24,NNE,20,3.0,7.0,65,0.00,,SKC,0.00,VWS V14.00,2013-01-20 17:43:00,
2013-01-20 11:48:00,61.4,47.4,30.23,NNE,17,5.0,7.0,60,0.00,,SKC,0.00,VWS V14.00,2013-01-20 17:48:00,
2013-01-20 11:53:00,61.6,48.0,30.23,NNE,29,4.0,7.0,61,0.00,,SKC,0.00,VWS V14.00,2013-01-20 17:53:00,
2013-01-20 11:58:00,61.8,48.2,30.22,NNE,22,3.0,7.0,61,0.00,,SKC,0.00,VWS V14.00,2013-01-20 17:58:00,
2013-01-20 12:03:00,62.1,48.1,30.22,NNE,21,2.0,5.0,60,0.00,,SKC,0.00,VWS V14.00,2013-01-20 18:03:00,
2013-01-20 12:08:00,62.2,46.8,30.21,NE,40,3.0,7.0,57,0.00,,SKC,0.00,VWS V14.00,2013-01-20 18:08:00,
2013-01-20 12:13:00,62.3,46.4,30.21,NE,35,0.0,7.0,56,0.00,,SKC,0.00,VWS V14.00,2013-01-20 18:13:00,
2013-01-20 12:18:00,62.7,43.3,30.21,ENE,59,5.0,7.0,49,0.00,,SKC,0.00,VWS V14.00,2013-01-20 18:18:00,
2013-01-20 12:23:00,63.0,43.6,30.20,ENE,75,1.0,8.0,49,0.00,,SKC,0.00,VWS V14.00,2013-01-20 18:23:00,
2013-01-20 12:28:00,63.2,44.3,30.20,ENE,75,0.0,8.0,50,0.00,,SKC,0.00,VWS V14.00,2013-01-20 18:28:00,
2013-01-20 12:33:00,63.7,45.2,30.19,ESE,113,4.0,8.0,51,0.00,,SKC,0.00,VWS V14.00,2013-01-20 18:33:00,
2013-01-20 12:38:00,64.1,45.1,30.19,East,96,5.0,8.0,50,0.00,,SKC,0.00,VWS V14.00,2013-01-20 18:38:00,
2013-01-20 12:43:00,64.1,44.6,30.18,ESE,107,5.0,8.0,49,0.00,,SKC,0.00,VWS V14.00,2013-01-20 18:43:00,
2013-01-20 12:48:00,64.2,46.2,30.18,East,86,6.0,8.0,52,0.00,,SKC,0.00,VWS V14.00,2013-01-20 18:48:00,
2013-01-20 12:53:00,64.2,46.2,30.18,East,85,4.0,8.0,52,0.00,,SKC,0.00,VWS V14.00,2013-01-20 18:53:00,
2013-01-20 12:58:00,64.3,46.8,30.18,ESE,110,2.0,8.0,53,0.00,,SKC,0.00,VWS V14.00,2013-01-20 18:58:00,
2013-01-20 13:03:00,64.3,47.8,30.18,ENE,71,4.0,4.0,55,0.00,,SKC,0.00,VWS V14.00,2013-01-20 19:03:00,
2013-01-20 13:08:00,64.0,46.0,30.17,ENE,57,2.0,5.0,52,0.00,,SKC,0.00,VWS V14.00,2013-01-20 19:08:00,
2013-01-20 13:13:00,64.2,47.2,30.17,ENE,57,5.0,5.0,54,0.00,,SKC,0.00,VWS V14.00,2013-01-20 19:13:00,
2013-01-20 13:18:00,64.3,46.8,30.17,ENE,57,2.0,6.0,53,0.00,,SKC,0.00,VWS V14.00,2013-01-20 19:18:00,
2013-01-20 13:23:00,64.5,48.0,30.16,ENE,62,3.0,6.0,55,0.00,,SKC,0.00,VWS V14.00,2013-01-20 19:23:00,
2013-01-20 13:28:00,64.8,47.8,30.16,NE,55,2.0,6.0,54,0.00,,SKC,0.00,VWS V14.00,2013-01-20 19:28:00,
2013-01-20 13:33:00,64.8,48.8,30.16,NE,55,0.0,6.0,56,0.00,,SKC,0.00,VWS V14.00,2013-01-20 19:33:00,
2013-01-20 13:38:00,65.0,48.0,30.16,NE,54,4.0,6.0,54,0.00,,SKC,0.00,VWS V14.00,2013-01-20 19:38:00,
2013-01-20 13:43:00,65.0,47.0,30.16,NE,53,1.0,6.0,52,0.00,,SKC,0.00,VWS V14.00,2013-01-20 19:43:00,
2013-01-20 13:47:00,65.2,47.2,30.15,NE,54,3.0,6.0,52,0.00,,SKC,0.00,VWS V14.00,2013-01-20 19:47:00,
2013-01-20 13:52:00,65.5,47.4,30.15,NE,55,0.0,6.0,52,0.00,,SKC,0.00,VWS V14.00,2013-01-20 19:52:00,
2013-01-20 13:57:00,65.8,47.2,30.15,ENE,70,3.0,6.0,51,0.00,,SKC,0.00,VWS V14.00,2013-01-20 19:57:00,
2013-01-20 14:02:00,65.6,47.0,30.15,NE,49,3.0,4.0,51,0.00,,SKC,0.00,VWS V14.00,2013-01-20 20:02:00,
2013-01-20 14:07:00,65.2,46.6,30.15,North,355,4.0,7.0,51,0.00,,SKC,0.00,VWS V14.00,2013-01-20 20:07:00,
2013-01-20 14:12:00,64.9,46.9,30.15,North,355,2.0,7.0,52,0.00,,SKC,0.00,VWS V14.00,2013-01-20 20:12:00,
2013-01-20 14:17:00,65.2,47.2,30.14,North,5,1.0,7.0,52,0.00,,SKC,0.00,VWS V14.00,2013-01-20 20:17:00,
2013-01-20 14:22:00,65.5,46.9,30.14,North,5,1.0,7.0,51,0.00,,SKC,0.00,VWS V14.00,2013-01-20 20:22:00,
2013-01-20 14:27:00,65.5,46.4,30.14,NNE,19,1.0,7.0,50,0.00,,SKC,0.00,VWS V14.00,2013-01-20 20:27:00,
2013-01-20 14:32:00,65.8,48.2,30.14,NNE,19,3.0,7.0,53,0.00,,SKC,0.00,VWS V14.00,2013-01-20 20:32:00,
2013-01-20 14:37:00,65.8,46.7,30.14,NNE,22,4.0,7.0,50,0.00,,SKC,0.00,VWS V14.00,2013-01-20 20:37:00,
2013-01-20 14:42:00,65.4,46.8,30.13,NW,325,9.0,9.0,51,0.00,,SKC,0.00,VWS V14.00,2013-01-20 20:42:00,
2013-01-20 14:47:00,64.7,46.7,30.14,NNE,25,4.0,9.0,52,0.00,,SKC,0.00,VWS V14.00,2013-01-20 20:47:00,
2013-01-20 14:52:00,64.6,47.1,30.13,NNE,26,1.0,9.0,53,0.00,,SKC,0.00,VWS V14.00,2013-01-20 20:52:00,
2013-01-20 14:57:00,65.0,48.0,30.14,NNE,26,0.0,9.0,54,0.00,,SKC,0.00,VWS V14.00,2013-01-20 20:57:00,
2013-01-20 15:02:00,65.4,47.3,30.13,NNE,28,0.0,3.0,52,0.00,,SKC,0.00,VWS V14.00,2013-01-20 21:02:00,
2013-01-20 15:07:00,65.4,47.3,30.13,SSE,162,2.0,6.0,52,0.00,,SKC,0.00,VWS V14.00,2013-01-20 21:07:00,
2013-01-20 15:12:00,65.3,47.2,30.13,ESE,108,0.0,6.0,52,0.00,,SKC,0.00,VWS V14.00,2013-01-20 21:12:00,
2013-01-20 15:17:00,65.0,47.5,30.13,SSE,154,4.0,7.0,53,0.00,,SKC,0.00,VWS V14.00,2013-01-20 21:17:00,
2013-01-20 15:22:00,64.9,47.4,30.13,SSE,154,1.0,7.0,53,0.00,,SKC,0.00,VWS V14.00,2013-01-20 21:22:00,
2013-01-20 15:27:00,65.1,47.1,30.13,SSE,154,2.0,7.0,52,0.00,,SKC,0.00,VWS V14.00,2013-01-20 21:27:00,
2013-01-20 15:32:00,65.2,47.7,30.13,South,171,7.0,7.0,53,0.00,,SKC,0.00,VWS V14.00,2013-01-20 21:32:00,
2013-01-20 15:37:00,64.9,47.9,30.13,South,169,5.0,8.0,54,0.00,,SKC,0.00,VWS V14.00,2013-01-20 21:37:00,
2013-01-20 15:42:00,64.7,47.7,30.13,South,173,6.0,8.0,54,0.00,,SKC,0.00,VWS V14.00,2013-01-20 21:42:00,
2013-01-20 15:47:00,64.5,46.5,30.13,South,173,4.0,8.0,52,0.00,,SKC,0.00,VWS V14.00,2013-01-20 21:47:00,
2013-01-20 15:52:00,64.4,47.4,30.13,South,173,2.0,8.0,54,0.00,,SKC,0.00,VWS V14.00,2013-01-20 21:52:00,
2013-01-20 15:57:00,64.4,47.4,30.13,South,171,6.0,8.0,54,0.00,,SKC,0.00,VWS V14.00,2013-01-20 21:57:00,
2013-01-20 16:02:00,64.3,47.8,30.13,South,171,5.0,7.0,55,0.00,,SKC,0.00,VWS V14.00,2013-01-20 22:02:00,
2013-01-20 16:07:00,64.2,46.2,30.13,SSE,165,5.0,7.0,52,0.00,,SKC,0.00,VWS V14.00,2013-01-20 22:07:00,
2013-01-20 16:12:00,64.1,46.6,30.13,SSE,165,5.0,7.0,53,0.00,,SKC,0.00,VWS V14.00,2013-01-20 22:12:00,
2013-01-20 16:17:00,64.1,48.6,30.13,SSE,165,5.0,7.0,57,0.00,,SKC,0.00,VWS V14.00,2013-01-20 22:17:00,
2013-01-20 16:22:00,64.0,46.5,30.13,South,169,2.0,7.0,53,0.00,,SKC,0.00,VWS V14.00,2013-01-20 22:22:00,
2013-01-20 16:27:00,63.9,46.0,30.13,South,169,1.0,7.0,52,0.00,,SKC,0.00,VWS V14.00,2013-01-20 22:27:00,
2013-01-20 16:32:00,63.9,46.5,30.13,South,169,4.0,7.0,53,0.00,,SKC,0.00,VWS V14.00,2013-01-20 22:32:00,
2013-01-20 16:37:00,63.9,47.9,30.13,South,169,4.0,7.0,56,0.00,,SKC,0.00,VWS V14.00,2013-01-20 22:37:00,
2013-01-20 16:42:00,63.8,47.3,30.13,South,169,1.0,7.0,55,0.00,,SKC,0.00,VWS V14.00,2013-01-20 22:42:00,
2013-01-20 16:47:00,63.9,49.8,30.13,South,169,2.0,7.0,60,0.00,,SKC,0.00,VWS V14.00,2013-01-20 22:47:00,
2013-01-20 16:52:00,63.7,47.2,30.13,South,169,2.0,7.0,55,0.00,,SKC,0.00,VWS V14.00,2013-01-20 22:52:00,
2013-01-20 16:57:00,63.6,46.7,30.13,South,169,1.0,7.0,54,0.00,,SKC,0.00,VWS V14.00,2013-01-20 22:57:00,
2013-01-20 17:02:00,63.7,46.3,30.13,South,169,0.0,0.0,53,0.00,,SKC,0.00,VWS V14.00,2013-01-20 23:02:00,
2013-01-20 17:07:00,63.8,46.8,30.13,South,169,0.0,0.0,54,0.00,,SKC,0.00,VWS V14.00,2013-01-20 23:07:00,
2013-01-20 17:12:00,63.9,47.0,30.13,South,169,0.0,0.0,54,0.00,,SKC,0.00,VWS V14.00,2013-01-20 23:12:00,
2013-01-20 17:17:00,63.8,46.8,30.13,South,169,0.0,0.0,54,0.00,,SKC,0.00,VWS V14.00,2013-01-20 23:17:00,
2013-01-20 17:22:00,63.8,50.1,30.13,South,169,0.0,0.0,61,0.00,,SKC,0.00,VWS V14.00,2013-01-20 23:22:00,
2013-01-20 17:28:00,63.6,49.9,30.13,South,169,0.0,0.0,61,0.00,,SKC,0.00,VWS V14.00,2013-01-20 23:28:00,
2013-01-20 17:33:00,63.0,48.0,30.13,South,169,0.0,0.0,58,0.00,,SKC,0.00,VWS V14.00,2013-01-20 23:33:00,
2013-01-20 17:38:00,62.1,47.2,30.13,South,169,0.0,0.0,58,0.00,,SKC,0.00,VWS V14.00,2013-01-20 23:38:00,
2013-01-20 17:43:00,61.2,47.7,30.13,South,169,0.0,0.0,61,0.00,,SKC,0.00,VWS V14.00,2013-01-20 23:43:00,
2013-01-20 17:48:00,60.2,47.2,30.14,South,169,0.0,0.0,62,0.00,,SKC,0.00,VWS V14.00,2013-01-20 23:48:00,
2013-01-20 17:53:00,59.4,46.8,30.14,South,169,0.0,0.0,63,0.00,,SKC,0.00,VWS V14.00,2013-01-20 23:53:00,
2013-01-20 17:58:00,58.7,47.0,30.14,South,169,0.0,0.0,65,0.00,,SKC,0.00,VWS V14.00,2013-01-20 23:58:00,
2013-01-20 18:03:00,58.1,46.8,30.14,South,169,0.0,0.0,66,0.00,,SKC,0.00,VWS V14.00,2013-01-21 00:03:00,
2013-01-20 18:08:00,57.6,46.7,30.14,South,169,0.0,0.0,67,0.00,,SKC,0.00,VWS V14.00,2013-01-21 00:08:00,
2013-01-20 18:13:00,57.0,47.3,30.14,South,169,0.0,0.0,70,0.00,,SKC,0.00,VWS V14.00,2013-01-21 00:13:00,
2013-01-20 18:18:00,56.4,47.1,30.14,South,169,0.0,0.0,71,0.00,,SKC,0.00,VWS V14.00,2013-01-21 00:18:00,
2013-01-20 18:23:00,55.9,47.0,30.14,South,169,0.0,0.0,72,0.00,,SKC,0.00,VWS V14.00,2013-01-21 00:23:00,
2013-01-20 18:28:00,55.4,46.9,30.14,South,169,0.0,0.0,73,0.00,,SKC,0.00,VWS V14.00,2013-01-21 00:28:00,
2013-01-20 18:33:00,54.9,46.8,30.14,South,169,0.0,0.0,74,0.00,,SKC,0.00,VWS V14.00,2013-01-21 00:33:00,
2013-01-20 18:38:00,54.5,46.4,30.14,South,169,0.0,0.0,74,0.00,,SKC,0.00,VWS V14.00,2013-01-21 00:38:00,
2013-01-20 18:43:00,54.2,46.1,30.14,South,169,0.0,0.0,74,0.00,,SKC,0.00,VWS V14.00,2013-01-21 00:43:00,
2013-01-20 18:48:00,53.8,46.8,30.15,South,169,0.0,0.0,77,0.00,,SKC,0.00,VWS V14.00,2013-01-21 00:48:00,
2013-01-20 18:53:00,53.4,46.7,30.15,South,169,0.0,0.0,78,0.00,,SKC,0.00,VWS V14.00,2013-01-21 00:53:00,
2013-01-20 18:58:00,53.1,46.4,30.15,South,169,0.0,0.0,78,0.00,,SKC,0.00,VWS V14.00,2013-01-21 00:58:00,
2013-01-20 19:03:00,52.6,46.3,30.15,South,169,0.0,0.0,79,0.00,,SKC,0.00,VWS V14.00,2013-01-21 01:03:00,
2013-01-20 19:08:00,51.9,46.3,30.15,South,169,0.0,0.0,81,0.00,,SKC,0.00,VWS V14.00,2013-01-21 01:08:00,
2013-01-20 19:13:00,51.5,46.2,30.15,South,169,0.0,0.0,82,0.00,,SKC,0.00,VWS V14.00,2013-01-21 01:13:00,
2013-01-20 19:18:00,51.2,46.2,30.15,South,169,0.0,0.0,83,0.00,,SKC,0.00,VWS V14.00,2013-01-21 01:18:00,
2013-01-20 19:23:00,51.0,46.3,30.15,South,169,0.0,0.0,84,0.00,,SKC,0.00,VWS V14.00,2013-01-21 01:23:00,
2013-01-20 19:28:00,50.8,46.2,30.15,South,169,0.0,0.0,84,0.00,,SKC,0.00,VWS V14.00,2013-01-21 01:28:00,
2013-01-20 19:33:00,50.6,46.0,30.16,South,169,0.0,0.0,84,0.00,,SKC,0.00,VWS V14.00,2013-01-21 01:33:00,
2013-01-20 19:38:00,50.4,45.8,30.16,South,169,0.0,0.0,84,0.00,,SKC,0.00,VWS V14.00,2013-01-21 01:38:00,
2013-01-20 19:43:00,50.1,45.5,30.16,South,169,0.0,0.0,84,0.00,,SKC,0.00,VWS V14.00,2013-01-21 01:43:00,
2013-01-20 19:48:00,49.8,45.5,30.16,South,169,0.0,0.0,85,0.00,,SKC,0.00,VWS V14.00,2013-01-21 01:48:00,
2013-01-20 19:53:00,49.6,45.3,30.16,South,169,0.0,0.0,85,0.00,,SKC,0.00,VWS V14.00,2013-01-21 01:53:00,
2013-01-20 19:58:00,49.4,45.1,30.16,South,169,0.0,0.0,85,0.00,,SKC,0.00,VWS V14.00,2013-01-21 01:58:00,
2013-01-20 20:03:00,49.3,45.3,30.16,South,169,0.0,0.0,86,0.00,,SKC,0.00,VWS V14.00,2013-01-21 02:03:00,
2013-01-20 20:08:00,49.2,44.9,30.16,South,169,0.0,0.0,85,0.00,,SKC,0.00,VWS V14.00,2013-01-21 02:08:00,
2013-01-20 20:13:00,49.0,44.7,30.16,South,169,0.0,0.0,85,0.00,,SKC,0.00,VWS V14.00,2013-01-21 02:13:00,
2013-01-20 20:18:00,48.8,44.5,30.16,South,169,0.0,0.0,85,0.00,,SKC,0.00,VWS V14.00,2013-01-21 02:18:00,
2013-01-20 20:23:00,48.7,44.7,30.16,South,169,0.0,0.0,86,0.00,,SKC,0.00,VWS V14.00,2013-01-21 02:23:00,
2013-01-20 20:28:00,48.5,44.5,30.16,South,169,0.0,0.0,86,0.00,,SKC,0.00,VWS V14.00,2013-01-21 02:28:00,
2013-01-20 20:33:00,48.3,44.6,30.16,South,169,0.0,0.0,87,0.00,,SKC,0.00,VWS V14.00,2013-01-21 02:33:00,
2013-01-20 20:38:00,48.1,44.4,30.16,South,169,0.0,0.0,87,0.00,,SKC,0.00,VWS V14.00,2013-01-21 02:38:00,
2013-01-20 20:43:00,47.8,44.1,30.16,South,169,0.0,0.0,87,0.00,,SKC,0.00,VWS V14.00,2013-01-21 02:43:00,
2013-01-20 20:48:00,47.5,43.8,30.16,South,169,0.0,0.0,87,0.00,,SKC,0.00,VWS V14.00,2013-01-21 02:48:00,
2013-01-20 20:53:00,47.1,43.4,30.16,South,169,0.0,0.0,87,0.00,,SKC,0.00,VWS V14.00,2013-01-21 02:53:00,
2013-01-20 20:58:00,47.0,43.6,30.16,South,169,0.0,0.0,88,0.00,,SKC,0.00,VWS V14.00,2013-01-21 02:58:00,
2013-01-20 21:03:00,47.0,43.9,30.16,South,169,0.0,0.0,89,0.00,,SKC,0.00,VWS V14.00,2013-01-21 03:03:00,
2013-01-20 21:08:00,47.0,43.9,30.16,South,169,0.0,0.0,89,0.00,,SKC,0.00,VWS V14.00,2013-01-21 03:08:00,
2013-01-20 21:13:00,47.0,43.9,30.16,South,169,0.0,0.0,89,0.00,,SKC,0.00,VWS V14.00,2013-01-21 03:13:00,
2013-01-20 21:18:00,46.9,43.8,30.16,South,169,0.0,0.0,89,0.00,,SKC,0.00,VWS V14.00,2013-01-21 03:18:00,
2013-01-20 21:23:00,46.8,43.7,30.16,South,169,0.0,0.0,89,0.00,,SKC,0.00,VWS V14.00,2013-01-21 03:23:00,
2013-01-20 21:28:00,46.5,43.4,30.16,South,169,0.0,0.0,89,0.00,,SKC,0.00,VWS V14.00,2013-01-21 03:28:00,
2013-01-20 21:33:00,46.4,43.3,30.16,South,169,0.0,0.0,89,0.00,,SKC,0.00,VWS V14.00,2013-01-21 03:33:00,
2013-01-20 21:38:00,46.2,43.4,30.16,South,169,0.0,0.0,90,0.00,,SKC,0.00,VWS V14.00,2013-01-21 03:38:00,
2013-01-20 21:43:00,46.1,43.3,30.16,South,169,0.0,0.0,90,0.00,,SKC,0.00,VWS V14.00,2013-01-21 03:43:00,
2013-01-20 21:48:00,46.1,43.6,30.16,South,169,0.0,0.0,91,0.00,,SKC,0.00,VWS V14.00,2013-01-21 03:48:00,
2013-01-20 21:53:00,46.0,43.5,30.17,South,169,0.0,0.0,91,0.00,,SKC,0.00,VWS V14.00,2013-01-21 03:53:00,
2013-01-20 21:58:00,46.0,43.5,30.17,South,169,0.0,0.0,91,0.00,,SKC,0.00,VWS V14.00,2013-01-21 03:58:00,
2013-01-20 22:03:00,46.0,43.5,30.17,South,169,0.0,0.0,91,0.00,,SKC,0.00,VWS V14.00,2013-01-21 04:03:00,
2013-01-20 22:08:00,46.0,43.5,30.16,South,169,0.0,0.0,91,0.00,,SKC,0.00,VWS V14.00,2013-01-21 04:08:00,
2013-01-20 22:13:00,45.9,43.4,30.16,South,169,0.0,0.0,91,0.00,,SKC,0.00,VWS V14.00,2013-01-21 04:13:00,
2013-01-20 22:18:00,45.9,43.4,30.16,South,169,0.0,0.0,91,0.00,,SKC,0.00,VWS V14.00,2013-01-21 04:18:00,
2013-01-20 22:23:00,45.7,43.2,30.16,South,169,0.0,0.0,91,0.00,,SKC,0.00,VWS V14.00,2013-01-21 04:23:00,
2013-01-20 22:28:00,45.5,43.0,30.16,South,169,0.0,0.0,91,0.00,,SKC,0.00,VWS V14.00,2013-01-21 04:28:00,
2013-01-20 22:33:00,45.4,42.9,30.16,South,169,0.0,0.0,91,0.00,,SKC,0.00,VWS V14.00,2013-01-21 04:33:00,
2013-01-20 22:38:00,45.4,43.2,30.16,South,169,0.0,0.0,92,0.00,,SKC,0.00,VWS V14.00,2013-01-21 04:38:00,
2013-01-20 22:43:00,45.3,43.1,30.16,South,169,0.0,0.0,92,0.00,,SKC,0.00,VWS V14.00,2013-01-21 04:43:00,
2013-01-20 22:48:00,45.3,43.1,30.16,South,169,0.0,0.0,92,0.00,,SKC,0.00,VWS V14.00,2013-01-21 04:48:00,
2013-01-20 22:53:00,45.2,43.0,30.16,South,169,0.0,0.0,92,0.00,,SKC,0.00,VWS V14.00,2013-01-21 04:53:00,
2013-01-20 22:58:00,45.0,42.8,30.16,South,169,0.0,0.0,92,0.00,,SKC,0.00,VWS V14.00,2013-01-21 04:58:00,
2013-01-20 23:00:00,44.9,42.7,30.16,South,169,0.0,0.0,92,0.00,,SKC,0.00,VWS V14.00,2013-01-21 05:00:00,
2013-01-20 23:01:00,44.9,42.7,30.16,South,169,0.0,0.0,92,0.00,,SKC,0.00,VWS V14.00,2013-01-21 05:01:00,
2013-01-20 23:02:00,44.9,42.7,30.16,South,169,0.0,0.0,92,0.00,,SKC,0.00,VWS V14.00,2013-01-21 05:02:00,
2013-01-20 23:07:00,44.8,42.9,30.16,South,169,2.0,2.0,93,0.00,,SKC,0.00,VWS V14.00,2013-01-21 05:07:00,
2013-01-20 23:12:00,44.6,42.4,30.15,South,169,2.0,4.0,92,0.00,,SKC,0.00,VWS V14.00,2013-01-21 05:12:00,
2013-01-20 23:17:00,44.5,42.3,30.15,South,169,0.0,4.0,92,0.00,,SKC,0.00,VWS V14.00,2013-01-21 05:17:00,
2013-01-20 23:22:00,44.5,42.6,30.15,South,169,0.0,4.0,93,0.00,,SKC,0.00,VWS V14.00,2013-01-21 05:22:00,
2013-01-20 23:27:00,44.6,42.7,30.15,South,169,0.0,4.0,93,0.00,,SKC,0.00,VWS V14.00,2013-01-21 05:27:00,
2013-01-20 23:32:00,44.6,42.7,30.15,South,169,0.0,4.0,93,0.00,,SKC,0.00,VWS V14.00,2013-01-21 05:32:00,
2013-01-20 23:37:00,44.7,42.8,30.15,South,169,0.0,4.0,93,0.00,,SKC,0.00,VWS V14.00,2013-01-21 05:37:00,
2013-01-20 23:42:00,44.6,42.7,30.15,South,169,0.0,4.0,93,0.00,,SKC,0.00,VWS V14.00,2013-01-21 05:42:00,
2013-01-20 23:47:00,44.5,42.3,30.15,South,169,2.0,4.0,92,0.00,,SKC,0.00,VWS V14.00,2013-01-21 05:47:00,
2013-01-20 23:52:00,44.3,42.4,30.15,South,169,0.0,4.0,93,0.00,,SKC,0.00,VWS V14.00,2013-01-21 05:52:00,
2013-01-20 23:57:00,44.4,42.5,30.14,South,169,0.0,4.0,93,0.00,,SKC,0.00,VWS V14.00,2013-01-21 05:57:00,